Location: Clanezzo
(45.7500°N, 9.6000°E)
Time: 23:03:43
(UTC+00:00)

Meteor 1-27 Rocket - Pass Details

Date: 12 May 2021
Orbit: 829 x 910 km, 81.3° (Epoch: 23 June)

Event Time Altitude Azimuth Distance (km) Brightness Sun altitude
Exits shadow 21:52:07 24° 220° (SW) 1,780 5.1 -23.0°
Maximum altitude 21:55:32 51° 286° (WNW) 1,119 4.5 -23.2°
Drops below altitude 10° 22:01:19 10° 2° (N) 2,602 7.2 -23.6°
Sets 22:03:53 0° 7° (N) 3,551 8.0 -23.7°
